Location: *
(37.5724°S, 58.0067°E)
Time: 04:13:06
(UTC+00:00)

NOSS 3-1 (A) - Pass Details

Date: 27 June 2021
Orbit: 729 x 1483 km, 63.4° (Epoch: 23 July)

Event Time Altitude Azimuth Distance (km) Brightness Sun altitude
Rises 14:43:09 0° 209° (SSW) 3,820 6.8 -20.0°
Reaches altitude 10° 14:46:09 10° 201° (SSW) 2,740 5.9 -20.6°
Maximum altitude 14:52:03 41° 132° (SE) 1,238 3.6 -21.7°
Enters shadow 14:52:04 41° 131° (SE) 1,237 3.6 -21.7°
